KLM416 OBBI-LBSF

Flight info

Callsign KLM416
Flight time N/A
Altitude 38000
Route BHR345/30R ELOSO A453 EGMOR L768 AAR V45 TRF R652 OBROD/N0465F400 Q163 GENEX L53 SUVAS N128 OTHON UN128 VAXOS DCT USINI DCT MES UG18 GIKAS UN133 ATFIR DCT VANET
Aircraft B738/M-SDE2E3FGHIRWXY/LB1

Departure

Time N/A
Airport Bahrain International Airport (OBBI)

Arrival

Time 2026-05-04 18:47
Airport Sofia Airport (LBSF)
Time Latitude Longitude Altitude Speed Heading
2026-05-04 17:41 36.90547 26.95798 38026 ft 421 kts 328°
2026-05-04 17:41 36.93010 26.93915 38051 ft 413 kts 328°
2026-05-04 17:42 36.97969 26.90115 38056 ft 424 kts 328°
2026-05-04 17:42 37.03061 26.86208 38054 ft 433 kts 328°
2026-05-04 17:43 37.08196 26.82262 38073 ft 432 kts 328°
2026-05-04 17:43 37.13320 26.78320 38062 ft 432 kts 328°
2026-05-04 17:44 37.18437 26.74377 38068 ft 431 kts 328°
2026-05-04 17:44 37.23553 26.70427 38066 ft 431 kts 328°
2026-05-04 17:45 37.28655 26.66482 38071 ft 430 kts 328°
2026-05-04 17:45 37.33756 26.62532 38072 ft 430 kts 328°
2026-05-04 17:46 37.38850 26.58580 38073 ft 430 kts 328°
2026-05-04 17:46 37.43939 26.54626 38064 ft 430 kts 328°
2026-05-04 17:47 37.49020 26.50673 38073 ft 429 kts 328°
2026-05-04 17:47 37.54100 26.46712 38078 ft 429 kts 328°
2026-05-04 17:48 37.59182 26.42745 38084 ft 429 kts 328°
2026-05-04 17:48 37.64257 26.38776 38079 ft 429 kts 328°
2026-05-04 17:49 37.69331 26.34802 38087 ft 429 kts 328°
2026-05-04 17:49 37.74399 26.30825 38083 ft 429 kts 328°
2026-05-04 17:50 37.79433 26.26869 38084 ft 429 kts 328°
2026-05-04 17:50 37.84501 26.22880 38081 ft 428 kts 328°
2026-05-04 17:51 37.89555 26.18895 38090 ft 428 kts 328°
2026-05-04 17:51 37.94609 26.14904 38087 ft 428 kts 328°
2026-05-04 17:52 37.99666 26.10903 38090 ft 428 kts 328°
2026-05-04 17:52 38.04888 26.06765 38087 ft 428 kts 328°
2026-05-04 17:53 38.09708 26.02939 38083 ft 428 kts 328°
2026-05-04 17:53 38.14753 25.98928 38088 ft 428 kts 328°
2026-05-04 17:54 38.19803 25.94907 38067 ft 428 kts 328°
2026-05-04 17:54 38.24847 25.90880 38074 ft 428 kts 327°
2026-05-04 17:55 38.29627 25.86371 38077 ft 428 kts 322°
2026-05-04 17:55 38.34321 25.81712 38089 ft 428 kts 323°
2026-05-04 17:56 38.39036 25.77095 38087 ft 428 kts 323°
2026-05-04 17:56 38.43716 25.72478 38097 ft 428 kts 322°
2026-05-04 17:57 38.48471 25.67806 38100 ft 429 kts 323°
2026-05-04 17:57 38.53212 25.63178 38082 ft 429 kts 323°
2026-05-04 17:58 38.57914 25.58580 38093 ft 428 kts 323°
2026-05-04 17:58 38.62642 25.53942 38088 ft 429 kts 323°
2026-05-04 17:59 38.67402 25.49263 38101 ft 428 kts 323°
2026-05-04 18:00 38.74464 25.42305 38095 ft 429 kts 323°
2026-05-04 18:00 38.79196 25.37633 38103 ft 429 kts 323°
2026-05-04 18:01 38.83924 25.32956 38084 ft 429 kts 323°
2026-05-04 18:01 38.88650 25.28274 38098 ft 429 kts 323°
2026-05-04 18:02 38.95731 25.21243 38099 ft 429 kts 323°
2026-05-04 18:02 39.00460 25.16538 38103 ft 430 kts 323°
2026-05-04 18:03 39.05186 25.11827 38090 ft 430 kts 323°
2026-05-04 18:03 39.09913 25.07107 38094 ft 430 kts 323°
2026-05-04 18:04 39.14639 25.02378 38100 ft 430 kts 323°
2026-05-04 18:05 39.21726 24.95275 38088 ft 430 kts 322°
2026-05-04 18:05 39.26450 24.90524 38090 ft 431 kts 322°
2026-05-04 18:06 39.33542 24.83372 38086 ft 431 kts 322°
2026-05-04 18:06 39.38267 24.78597 38083 ft 431 kts 322°
2026-05-04 18:07 39.42994 24.73811 38089 ft 431 kts 322°
2026-05-04 18:07 39.47719 24.69019 38089 ft 431 kts 322°
2026-05-04 18:08 39.52755 24.64839 38088 ft 431 kts 334°
2026-05-04 18:08 39.58173 24.61499 38084 ft 431 kts 334°
2026-05-04 18:09 39.69013 24.54767 38074 ft 432 kts 334°
2026-05-04 18:10 39.74421 24.51362 38082 ft 432 kts 334°
2026-05-04 18:10 39.79834 24.47943 38074 ft 432 kts 334°
2026-05-04 18:11 39.85242 24.44521 38082 ft 433 kts 334°
2026-05-04 18:11 39.90657 24.41090 38078 ft 433 kts 334°
2026-05-04 18:12 39.96039 24.37674 38057 ft 433 kts 334°
2026-05-04 18:12 40.01450 24.34233 38074 ft 433 kts 334°
2026-05-04 18:13 40.06864 24.30785 38068 ft 433 kts 334°
2026-05-04 18:14 40.14993 24.25596 38068 ft 434 kts 334°
2026-05-04 18:14 40.20413 24.22128 38063 ft 434 kts 334°
2026-05-04 18:15 40.31213 24.15199 38066 ft 433 kts 334°
2026-05-04 18:16 40.36632 24.11713 38074 ft 434 kts 334°
2026-05-04 18:16 40.42048 24.08222 38064 ft 434 kts 334°
2026-05-04 18:17 40.50174 24.02973 38064 ft 434 kts 334°
2026-05-04 18:18 40.58309 23.97740 38055 ft 434 kts 337°
2026-05-04 18:18 40.64112 23.95614 38069 ft 434 kts 349°
2026-05-04 18:19 40.73060 23.93584 38061 ft 435 kts 349°
2026-05-04 18:19 40.79024 23.92194 38060 ft 435 kts 349°
2026-05-04 18:20 40.84987 23.90773 38062 ft 435 kts 349°
2026-05-04 18:20 40.89937 23.89586 38058 ft 436 kts 349°
2026-05-04 18:21 40.95909 23.88152 38062 ft 436 kts 349°
2026-05-04 18:21 41.01832 23.86727 38059 ft 436 kts 349°
2026-05-04 18:22 41.07526 23.85356 38053 ft 415 kts 349°
2026-05-04 18:22 41.10328 23.84681 38049 ft 404 kts 349°
2026-05-04 18:22 41.13061 23.84021 38056 ft 394 kts 349°
2026-05-04 18:23 41.18346 23.82743 38057 ft 379 kts 349°
2026-05-04 18:23 41.23442 23.81509 38063 ft 366 kts 349°
2026-05-04 18:24 41.28373 23.80315 38072 ft 355 kts 349°
2026-05-04 18:24 41.33182 23.79171 38072 ft 347 kts 349°
2026-05-04 18:25 41.37933 23.78042 37583 ft 353 kts 349°
2026-05-04 18:25 41.40375 23.77442 37188 ft 360 kts 347°
2026-05-04 18:25 41.42821 23.76607 36779 ft 367 kts 344°
2026-05-04 18:26 41.45283 23.75619 36377 ft 373 kts 342°
2026-05-04 18:26 41.47780 23.74570 35971 ft 378 kts 342°
2026-05-04 18:26 41.50305 23.73506 35585 ft 383 kts 342°
2026-05-04 18:26 41.52838 23.72447 35204 ft 388 kts 342°
2026-05-04 18:27 41.55431 23.71375 34828 ft 392 kts 343°
2026-05-04 18:27 41.58049 23.70302 34442 ft 396 kts 343°
2026-05-04 18:27 41.60694 23.69223 34074 ft 398 kts 343°
2026-05-04 18:27 41.63359 23.68139 33629 ft 401 kts 343°
2026-05-04 18:28 41.66040 23.67049 33076 ft 406 kts 343°
2026-05-04 18:28 41.68787 23.65932 32525 ft 410 kts 343°
2026-05-04 18:28 41.71563 23.64804 31990 ft 425 kts 343°
2026-05-04 18:28 41.74452 23.63629 31478 ft 443 kts 343°
2026-05-04 18:29 41.77458 23.62405 30962 ft 459 kts 344°
2026-05-04 18:29 41.80559 23.61141 30450 ft 472 kts 344°
2026-05-04 18:29 41.83688 23.59864 29904 ft 477 kts 343°
2026-05-04 18:29 41.86858 23.58567 29316 ft 473 kts 343°
2026-05-04 18:30 41.93120 23.56002 28166 ft 468 kts 344°
2026-05-04 18:30 41.96253 23.54865 27577 ft 465 kts 351°
2026-05-04 18:30 41.99438 23.54729 26918 ft 452 kts
2026-05-04 18:31 42.02411 23.55643 26314 ft 427 kts 19°
2026-05-04 18:31 42.05065 23.57236 25722 ft 409 kts 29°
2026-05-04 18:31 42.07490 23.59094 25139 ft 394 kts 29°
2026-05-04 18:31 42.09845 23.60862 24569 ft 381 kts 28°
2026-05-04 18:32 42.12138 23.62563 23999 ft 372 kts 28°
2026-05-04 18:32 42.14418 23.64241 23402 ft 375 kts 28°
2026-05-04 18:32 42.16706 23.65921 22763 ft 374 kts 28°
2026-05-04 18:32 42.18982 23.67590 22133 ft 369 kts 28°
2026-05-04 18:33 42.21217 23.69230 21506 ft 363 kts 28°
2026-05-04 18:33 42.23424 23.70851 20896 ft 358 kts 28°
2026-05-04 18:33 42.25604 23.72454 20311 ft 354 kts 28°
2026-05-04 18:33 42.27758 23.74038 19720 ft 350 kts 28°
2026-05-04 18:34 42.29886 23.75605 19156 ft 345 kts 29°
2026-05-04 18:34 42.31975 23.77143 18589 ft 337 kts 29°
2026-05-04 18:34 42.34013 23.78646 17977 ft 331 kts 29°
2026-05-04 18:34 42.36026 23.80133 17335 ft 328 kts 29°
2026-05-04 18:35 42.37990 23.81584 16713 ft 324 kts 29°
2026-05-04 18:35 42.39960 23.83040 16114 ft 321 kts 29°
2026-05-04 18:35 42.41912 23.84484 15509 ft 319 kts 30°
2026-05-04 18:35 42.43850 23.85918 14886 ft 316 kts 30°
2026-05-04 18:36 42.45769 23.87342 14265 ft 312 kts 30°
2026-05-04 18:36 42.47660 23.88742 13598 ft 306 kts 30°
2026-05-04 18:36 42.49510 23.90115 12922 ft 300 kts 30°
2026-05-04 18:36 42.51329 23.91466 12248 ft 295 kts 30°
2026-05-04 18:37 42.53089 23.92778 11685 ft 278 kts 30°
2026-05-04 18:37 42.54722 23.93983 11206 ft 260 kts 30°
2026-05-04 18:37 42.56299 23.95155 10701 ft 259 kts 30°
2026-05-04 18:37 42.57926 23.96239 10212 ft 262 kts 19°
2026-05-04 18:38 42.59716 23.96595 9696 ft 255 kts
2026-05-04 18:38 42.61458 23.96788 9177 ft 249 kts
2026-05-04 18:38 42.63169 23.96817 8655 ft 248 kts 353°
2026-05-04 18:38 42.64731 23.95873 8186 ft 248 kts 327°
2026-05-04 18:39 42.65905 23.94133 8068 ft 255 kts 307°
2026-05-04 18:39 42.66537 23.91855 8017 ft 263 kts 283°
2026-05-04 18:39 42.66746 23.89370 8018 ft 266 kts 282°
2026-05-04 18:39 42.66987 23.86873 7847 ft 266 kts 281°
2026-05-04 18:40 42.67170 23.84423 7512 ft 251 kts 279°
2026-05-04 18:40 42.67303 23.82188 7218 ft 224 kts 278°
2026-05-04 18:40 42.67415 23.80169 6951 ft 206 kts 279°
2026-05-04 18:40 42.67525 23.78241 6685 ft 212 kts 278°
2026-05-04 18:41 42.67646 23.76175 6400 ft 221 kts 278°
2026-05-04 18:41 42.67763 23.74100 6096 ft 218 kts 278°
2026-05-04 18:41 42.67876 23.72071 5802 ft 213 kts 277°
2026-05-04 18:41 42.67989 23.70091 5518 ft 209 kts 277°
2026-05-04 18:42 42.68102 23.68131 5255 ft 207 kts 277°
2026-05-04 18:42 42.68212 23.66198 4977 ft 202 kts 277°
2026-05-04 18:42 42.68319 23.64324 4701 ft 193 kts 277°
2026-05-04 18:42 42.68419 23.62571 4447 ft 179 kts 276°
2026-05-04 18:43 42.68513 23.60953 4216 ft 165 kts 276°
2026-05-04 18:43 42.68598 23.59484 4023 ft 148 kts 276°
2026-05-04 18:43 42.68676 23.58157 3817 ft 135 kts 275°
2026-05-04 18:43 42.68750 23.56887 3645 ft 135 kts 275°
2026-05-04 18:44 42.68824 23.55615 3441 ft 135 kts 274°
2026-05-04 18:44 42.68874 23.54765 3328 ft 138 kts 274°
2026-05-04 18:44 42.68976 23.53016 3083 ft 140 kts 274°
2026-05-04 18:44 42.69053 23.51707 2893 ft 138 kts 274°
2026-05-04 18:45 42.69127 23.50407 2720 ft 137 kts 274°
2026-05-04 18:45 42.69200 23.49121 2530 ft 137 kts 274°
2026-05-04 18:45 42.69280 23.47830 2353 ft 137 kts 274°
2026-05-04 18:45 42.69356 23.46552 2189 ft 135 kts 274°
2026-05-04 18:46 42.69440 23.45271 1989 ft 136 kts 274°
2026-05-04 18:46 42.69513 23.44003 1843 ft 133 kts 275°
2026-05-04 18:46 42.69585 23.42827 1749 ft 105 kts 274°
2026-05-04 18:46 42.69629 23.42030 1752 ft 75 kts 275°
2026-05-04 18:47 42.69543 23.41457 1752 ft 31 kts 244°
2026-05-04 18:47 42.69510 23.41351 1747 ft 0 kts 246°
2026-05-04 18:47 42.69509 23.41348 1747 ft 1 kts 246°
2026-05-04 18:47 42.69487 23.41280 1747 ft 17 kts 248°
2026-05-04 18:48 42.69391 23.41209 1750 ft 17 kts 199°
2026-05-04 18:48 42.69277 23.41159 1744 ft 17 kts 180°
2026-05-04 18:48 42.69163 23.41176 1747 ft 17 kts 156°
2026-05-04 18:48 42.69102 23.41208 1747 ft 6 kts 160°
2026-05-04 18:49 42.69063 23.41233 1747 ft 6 kts 134°
2026-05-04 18:49 42.69060 23.41248 1752 ft 0 kts 81°
2026-05-04 18:49 42.69063 23.41268 1751 ft 6 kts 77°
2026-05-04 18:49 42.69069 23.41300 1752 ft 1 kts 73°
2026-05-04 18:50 42.69070 23.41303 1752 ft 0 kts 73°